Preview of NWS' New Version of Forecast
This preview is not operational and should not be used for support decisions.

Regional Weather Roundup (RWR)

Issued by National Weather Service (NWS)

                            
000
ASUS43 KLSX 160607
RWRMO 

WEATHER SUMMARY FOR MISSOURI
NATIONAL WEATHER SERVICE SPRINGFIELD MO
100 AM CDT MON SEP 16 2019

NOTE: "FAIR" INDICATES FEW OR NO CLOUDS BELOW 12,000 FEET WITH NO
       SIGNIFICANT WEATHER AND/OR OBSTRUCTIONS TO VISIBILITY.
       CURRENT SKY AND/OR WEATHER CONDITIONS ARE NOT AVAILABLE FOR
       CHILLICOTHE AND FARMINGTON.

MOZ001>031-035>038-043-044-053-054-160700-
...NORTHERN AND WESTERN MISSOURI...
  
CITY           SKY/WX    TMP DP  RH WIND       PRES   REMARKS
KANSAS CTY INT CLEAR     74  69  85 S8        30.04S                  
6HR MIN TEMP:  73; 6HR MAX TEMP:  82;                                

KANSAS C DTWN  CLEAR     78  68  71 SW6       30.03R                  
6HR MIN TEMP:  78; 6HR MAX TEMP:  88;                                

LEE'S SUMMIT   CLEAR     78  69  73 SW9       30.05S                  
6HR MIN TEMP:  77; 6HR MAX TEMP:  86;                                

ST JOSEPH      CLEAR     73  71  93 CALM      30.02R                  
6HR MIN TEMP:  73; 6HR MAX TEMP:  85;                                

CHILLICOTHE      N/A     73  71  93 CALM      30.04S                  
6HR MIN TEMP:  73; 6HR MAX TEMP:  83;                                

KIRKSVILLE     CLEAR     70  69  97 CALM      30.05S FOG              
6HR MIN TEMP:  69; 6HR MAX TEMP:  84;                                

     
$$
MOZ066>068-077>081-088>096-101>105-160700-
...SOUTHWEST MISSOURI...
  
CITY           SKY/WX    TMP DP  RH WIND       PRES   REMARKS
SPRINGFIELD    CLEAR     70  66  87 SE5       30.10S                  
6HR MIN TEMP:  69; 6HR MAX TEMP:  88;                                

JOPLIN         CLEAR     73  69  87 SE3       30.09S                  
6HR MIN TEMP:  73; 6HR MAX TEMP:  84;                                

               
$$
MOZ032>034-039>042-045>050-055>058-069>072-160700-
...CENTRAL MISSOURI...  
  
CITY           SKY/WX    TMP DP  RH WIND       PRES   REMARKS
COLUMBIA       CLEAR     77  68  73 SW3       30.06S                  
6HR MIN TEMP:  75; 6HR MAX TEMP:  85;                                

JEFFERSON CITY CLEAR     73  70  90 SE3       30.05R                  
6HR MIN TEMP:  73; 6HR MAX TEMP:  89;                                

ROLLA          CLEAR     72  66  81 S8        30.10R                  
6HR MIN TEMP:  71; 6HR MAX TEMP:  82;                                

SEDALIA        CLEAR     74  70  87 SW7       30.06S                  
6HR MIN TEMP:  74; 6HR MAX TEMP:  83;                                

WHITEMAN AFB   CLEAR     74  73  99 S7        30.01S                  
WARRENSBURG    CLEAR     73  68  83 S3        30.05S                  
OSAGE BEACH    CLEAR     70  70 100 CALM      30.09R                  
               
$$
MOZ051-052-059>065-160700-
...EAST CENTRAL MISSOURI...
  
CITY           SKY/WX    TMP DP  RH WIND       PRES   REMARKS
ST LOUIS INTL  PTCLDY    78  68  71 CALM      30.06R                  
6HR MIN TEMP:  78; 6HR MAX TEMP:  89;                                

SPIRIT OF STL  CLEAR     72  70  93 CALM      30.05R                  
6HR MIN TEMP:  72; 6HR MAX TEMP:  85;                                

ST CHARLES       N/A    N/A N/A N/A MISG      30.04S                  
                   
$$
MOZ072>076-082>087-097>100-106>115-160700-
...SOUTH CENTRAL AND SOUTHEAST MISSOURI...
  
CITY           SKY/WX    TMP DP  RH WIND       PRES   REMARKS
CAPE GIRARDEAU FAIR      68  65  90 SW6       30.07S                  
6HR MIN TEMP:  67; 6HR MAX TEMP:  85;                                

FARMINGTON     CLEAR     70  67  90 CALM      30.11R                  
6HR MIN TEMP:  70; 6HR MAX TEMP:  84;                                

POPLAR BLUFF   FAIR      70  67  90 CALM      30.08S                  
6HR MIN TEMP:  69; 6HR MAX TEMP:  84;                                

WEST PLAINS    CLEAR     79  66  64 S6        30.13S                  
6HR MIN TEMP:  71; 6HR MAX TEMP:  85;                                

                                       
$$